Vertical_Velocity
-2 -3 1 0 -0 -1 -2 -2 -2 -6 -1 0 -2 -1 -3 -4 -3 1 -0 -3 3 -3 -5 -2 2 -6 0 0 -5 -20 0 -5 2 -4 5 -6 4 -4 5 8 4 -4 -13 5 7 -5 -3
-1 -2 -0 3 2 -3 0 -3 -3 1 -3 3 5 -7 -3 -7 3 -3 -2 2 -3 -3 -3 -4 -2 -3 -7 -19 1 -4 -3 -2 -1 -1 -3 1 10 3 -7 -7 -5 16 -6 14 2 -2 -0
-1 0 1 -0 1 1 -1 -2 1 -0 -0 -4 -3 1 -5 -4 -1 -3 -4 4 -1 -0 -3 0 -2 -7 -8 -7 5 -6 3 -4 -1 5 -5 -5 -0 6 8 -8 4 -6 -2 -6 -13 0 5
-1 -1 -0 -1 -3 -1 -3 1 -9 4 3 -5 -1 1 -4 -5 0 -3 -3 -5 1 -8 -1 0 -1 -1 -35 4 -0 3 -2 -6 -0 6 -3 -1 1 -2 1 1 -7 -4 3 2 -4 -12 -4
-0 -0 -1 3 3 -1 0 -3 1 0 -1 0 -2 -8 2 1 -2 0 -1 0 1 1 -8 -3 -1 3 -20 -14 -0 0 2 -7 -2 9 1 -6 1 3 3 0 -5 -3 -7 11 -1 -13 0
4 4 1 2 -1 0 -2 -1 -0 2 -1 -3 -6 1 -0 -4 -1 0 0 -3 -2 0 4 -9 -1 1 -1 -6 -0 11 1 7 -9 4 0 -4 2 -2 -1 3 -11 3 12 1 -20 37 -3
9 2 10 15 17 4 7 -3 -5 -2 3 3 -3 -0 -5 -3 -5 2 1 2 -6 -18 -11 5 18 -17 9 0 -4 1 4 -7 10 -2 -5 6 2 -6 4 2 -7 -7 -2 -4 -1 38 -9
17 10 -2 -6 -3 1 -3 -1 -3 -3 -1 -4 -1 0 0 -5 -1 -2 -2 3 -8 -6 -12 -7 -10 -1 -24 22 -10 -10 16 -4 1 -5 4 5 -2 -8 9 8 7 -2 -0 -10 -9 -11 23
-3 -2 -4 2 8 4 1 5 6 3 -2 -3 1 1 -3 -0 1 0 2 -3 -2 -3 -7 -1 -8 -3 9 -7 -2 -15 10 5 -1 4 0 -2 -3 7 6 -1 6 -6 -2 -3 5 -1 15
7 -2 7 5 1 6 7 6 7 2 2 14 4 8 7 9 9 3 -1 -0 -0 3 -14 -6 2 -7 -5 6 -12 -4 0 0 1 -2 3 -3 1 -2 10 -8 1 11 -0 3 -2 8 -4
5 1 -3 3 2 -0 -3 -5 5 1 -3 3 -2 2 4 12 2 4 2 -1 0 -0 8 11 -4 -8 -4 -1 -5 -2 -3 4 -2 0 2 -36 7 -4 4 -11 18 -23 2 -5 9 -2 14
-1 4 6 3 1 4 4 1 -1 1 -1 -7 -5 -0 -2 1 4 4 2 6 0 8 -15 0 0 -1 -2 -3 -2 -1 6 5 2 -0 7 -6 11 -0 -2 1 4 7 14 -6 1 3 15
-1 2 -1 2 -4 2 7 0 0 -0 -1 -7 -4 -5 -4 -5 -5 -3 2 8 13 4 -0 7 2 -3 5 8 2 2 2 -3 -3 1 0 -0 -9 -1 -5 4 -5 0 18 -0 8 14 -18
7 -1 -6 1 1 -2 2 4 2 8 10 6 4 5 4 -3 -3 6 5 16 10 -2 -21 -4 -6 -1 -4 3 -7 3 3 -2 -2 -1 -6 3 -6 6 3 -10 5 -16 1 -5 -2 2 -9
-2 -1 -2 -3 0 1 -3 3 3 3 15 11 2 18 6 3 6 -0 7 9 -24 -10 5 7 6 -3 2 7 -5 -3 4 15 5 -5 6 8 -7 11 -19 9 2 -13 9 -17 13 -7 16
3 5 -1 2 2 -1 1 -0 4 5 5 7 6 16 -1 14 4 8 15 -15 -3 12 -7 -5 4 -7 -5 8 -5 9 7 -17 -6 -3 3 -1 -11 -7 6 -2 -6 0 5 15 -0 4 2
-4 2 2 -4 -1 3 -2 -0 -3 6 3 3 8 17 5 6 21 24 -10 -11 -3 4 7 4 6 3 2 8 -5 10 15 -8 7 1 2 -1 3 -16 -2 -6 -8 9 -6 -6 12 15 1
-2 5 4 3 -2 -3 1 -3 -1 2 5 -1 5 5 -3 6 24 4 -5 2 17 5 14 -1 5 2 -0 5 -2 1 10 4 -10 2 1 8 4 -5 -14 14 14 -9 -8 8 21 -15 -4
3 4 6 -1 0 -10 -3 2 -1 5 1 13 3 -2 -12 17 3 4 3 -4 1 -2 2 -1 -3 -2 1 -5 -1 -4 -2 13 -8 -10 -2 11 8 -3 -6 4 6 27 10 26 27 34 -13
-2 -0 2 4 -0 1 0 0 1 3 4 6 2 34 1 21 -10 -1 8 -1 12 4 -5 -11 1 10 9 7 -6 -10 -11 7 -9 0 -2 -6 -11 -2 -4 -5 16 -12 -12 -1 9 7 -6
1 2 1 5 -1 2 -1 2 2 10 4 5 4 -4 -7 -2 -15 11 6 13 -5 -10 -4 -9 3 -12 -5 -1 -4 -4 -4 -1 0 -2 3 7 -3 -1 -5 -9 -3 -7 2 -3 5 -6 21
6 0 2 -1 3 0 4 -1 8 2 8 4 -5 -7 6 -12 8 1 -1 -15 -1 -1 39 -4 -10 5 -3 -4 -9 -2 10 7 7 5 3 -4 -27 3 -23 -5 5 0 -10 -13 -5 -10 -12
3 2 4 0 3 4 1 -0 -5 3 -2 -1 12 7 6 -16 -1 20 3 5 4 -2 -4 2 23 14 5 -3 30 -15 -7 -3 -5 -2 1 6 5 4 -18 7 10 11 -20 -3 -10 -3 5
-0 2 3 0 -1 -0 -1 0 4 -4 -2 3 5 18 2 9 12 2 17 18 7 12 -7 8 2 6 -1 2 -3 -0 -8 -4 -8 -10 -2 4 4 9 -18 7 9 -67 -1 -8 2 -1 9
-1 1 3 4 3 -2 6 2 1 4 2 -5 -2 10 10 -16 15 27 5 -3 4 -1 -4 -10 2 10 -3 5 6 -6 -12 7 -13 -7 -8 -3 7 3 14 1 -24 -25 -18 8 15 -31 18
-1 -0 1 2 2 5 0 5 1 -2 -0 -1 -4 -2 6 5 -14 4 3 -6 -7 5 -7 -9 25 1 -5 4 2 -4 -3 1 6 7 2 15 -6 21 7 11 -1 -25 40 -22 -1 -25 53
-0 0 0 -1 -1 -2 2 6 6 0 -0 -1 3 -1 1 -5 -5 -1 2 -7 -3 -6 -10 0 -6 7 0 27 -4 -4 -10 -1 -5 1 11 -1 0 -5 -2 3 -11 -31 -8 11 18 5 -5
-1 -1 -0 0 -1 -1 -1 10 5 2 2 -4 1 -0 3 -3 2 3 1 1 -7 -12 -13 -10 3 -4 -4 -8 6 22 10 16 -9 2 -5 15 14 -0 6 8 -9 -9 6 4 11 -2 -5
3 2 1 -1 0 0 -0 1 9 14 17 -2 2 6 1 -3 7 -9 -5 2 -6 -7 -7 0 -3 1 -1 -5 -6 -15 -11 3 1 -5 -11 13 -14 -0 14 -1 1 -18 -15 -4 -4 -4 2
Height
3136 3136 3136 3136 3136 3137 3137 3136 3136 3136 3135 3135 3135 3135 3133 3133 3133 3132 3132 3129 3128 3127 3127 3125 3123 3123 3122 3122 3121 3116 3118 3117 3117 3116 3117 3115 3115 3117 3117 3116 3117 3116 3114 3114 3112 3111 3110
3129 3129 3129 3129 3129 3130 3130 3130 3130 3129 3129 3129 3129 3128 3127 3127 3127 3127 3126 3125 3122 3121 3121 3120 3119 3117 3116 3113 3114 3113 3112 3112 3112 3113 3112 3112 3112 3110 3109 3111 3114 3113 3110 3110 3110 3107 3107
3120 3121 3121 3121 3121 3121 3122 3122 3122 3122 3122 3123 3122 3121 3122 3121 3122 3121 3120 3119 3117 3115 3115 3114 3113 3110 3108 3109 3110 3107 3107 3107 3107 3107 3108 3107 3107 3108 3107 3105 3108 3107 3107 3106 3105 3106 3104
3110 3112 3112 3113 3113 3113 3113 3114 3114 3115 3116 3116 3116 3115 3115 3115 3115 3114 3115 3114 3111 3109 3109 3109 3108 3103 3099 3102 3101 3102 3101 3102 3102 3102 3103 3102 3102 3102 3103 3104 3101 3105 3104 3100 3099 3100 3103
3099 3100 3102 3103 3104 3104 3104 3105 3106 3107 3108 3109 3108 3108 3107 3106 3107 3108 3109 3108 3105 3104 3103 3102 3102 3098 3096 3094 3094 3095 3097 3096 3099 3098 3097 3098 3098 3098 3101 3100 3101 3100 3097 3095 3094 3094 3098
3087 3088 3091 3091 3093 3094 3095 3096 3097 3098 3100 3100 3100 3099 3099 3100 3099 3100 3102 3101 3098 3097 3095 3096 3096 3096 3092 3090 3093 3093 3091 3093 3094 3096 3093 3092 3093 3093 3092 3098 3093 3092 3090 3088 3089 3090 3089
3077 3079 3080 3081 3081 3084 3085 3085 3088 3088 3090 3090 3090 3091 3091 3090 3090 3091 3094 3096 3093 3090 3084 3088 3090 3082 3089 3087 3084 3089 3085 3086 3088 3090 3090 3092 3090 3085 3086 3090 3088 3089 3087 3085 3085 3087 3085
3068 3067 3069 3070 3071 3072 3073 3075 3076 3076 3077 3078 3080 3080 3081 3082 3082 3082 3084 3087 3082 3084 3075 3074 3074 3072 3077 3080 3073 3078 3083 3080 3082 3080 3087 3088 3077 3081 3082 3082 3083 3083 3084 3082 3082 3082 3080
3057 3058 3059 3060 3059 3060 3062 3063 3064 3065 3065 3067 3070 3070 3072 3072 3072 3074 3075 3076 3076 3076 3071 3059 3062 3061 3064 3066 3059 3065 3071 3070 3069 3073 3077 3075 3074 3074 3075 3074 3075 3074 3077 3078 3076 3077 3074
3048 3048 3050 3050 3052 3052 3050 3053 3053 3056 3058 3057 3059 3061 3064 3065 3067 3067 3067 3068 3070 3072 3068 3057 3049 3051 3052 3050 3049 3052 3057 3061 3064 3062 3070 3063 3067 3066 3067 3066 3070 3066 3071 3070 3071 3072 3065
3039 3038 3039 3041 3043 3043 3046 3047 3045 3048 3050 3050 3052 3052 3055 3056 3057 3059 3061 3060 3064 3068 3068 3054 3044 3043 3045 3049 3045 3045 3047 3049 3052 3058 3062 3051 3058 3057 3056 3055 3064 3056 3066 3066 3065 3066 3065
3027 3028 3029 3031 3033 3035 3037 3038 3039 3040 3041 3044 3046 3047 3049 3051 3051 3053 3055 3056 3060 3065 3048 3044 3039 3039 3041 3043 3043 3042 3044 3045 3046 3048 3051 3048 3052 3051 3052 3053 3053 3057 3059 3060 3061 3062 3055
3012 3014 3017 3021 3023 3024 3027 3030 3030 3031 3033 3035 3038 3039 3041 3043 3044 3047 3050 3052 3054 3046 3038 3037 3036 3038 3039 3040 3040 3041 3042 3042 3045 3046 3043 3043 3043 3044 3046 3047 3047 3049 3053 3056 3055 3049 3038
3000 3001 3003 3006 3010 3013 3016 3018 3020 3022 3024 3027 3029 3030 3031 3034 3037 3039 3042 3046 3040 3033 3034 3032 3033 3035 3036 3037 3036 3039 3040 3040 3041 3041 3039 3037 3038 3039 3039 3040 3042 3042 3044 3043 3034 3032 3032
2989 2991 2992 2995 2996 2999 3003 3007 3010 3014 3015 3017 3018 3021 3022 3025 3028 3031 3034 3030 3027 3031 3030 3029 3028 3029 3034 3034 3034 3035 3036 3037 3035 3036 3038 3035 3030 3033 3035 3037 3038 3039 3035 3038 3036 3033 3035
2982 2982 2983 2985 2987 2990 2991 2995 2999 3002 3006 3009 3010 3011 3012 3018 3019 3023 3023 3017 3018 3024 3020 3023 3025 3023 3027 3029 3029 3030 3030 3028 3030 3030 3033 3030 3029 3029 3033 3032 3032 3032 3035 3034 3032 3026 3018
2972 2972 2973 2976 2978 2980 2982 2985 2989 2991 2995 2999 3000 3001 3006 3010 3012 3011 3008 3006 3013 3017 3014 3016 3019 3017 3021 3022 3021 3022 3022 3023 3028 3028 3028 3026 3027 3024 3027 3026 3029 3028 3025 3026 3027 3026 3019
2960 2964 2964 2966 2969 2972 2975 2978 2981 2983 2987 2990 2993 2993 2998 3001 3004 2999 2999 3003 3010 3010 3012 3012 3012 3012 3014 3015 3016 3014 3016 3016 3016 3020 3023 3024 3021 3018 3020 3022 3023 3021 3021 3022 3018 3015 3015
2950 2952 2954 2957 2960 2964 2966 2969 2972 2975 2979 2985 2984 2987 2992 2993 2992 2989 2993 2998 3003 3001 3004 3008 3009 3010 3012 3010 3014 3013 3014 3016 3012 3016 3018 3016 3017 3015 3011 3016 3014 3013 3015 3015 3011 3011 3004
2940 2942 2945 2946 2950 2954 2956 2959 2962 2967 2970 2977 2980 2975 2983 2983 2984 2985 2989 2990 2990 2991 2995 3001 3005 3008 3008 3007 3008 3008 3010 3011 3010 3014 3013 3013 3013 3014 3011 3013 3013 3007 3006 3007 3006 3003 2999
2932 2934 2937 2939 2942 2945 2948 2950 2953 2956 2962 2968 2971 2969 2975 2975 2977 2977 2984 2985 2985 2985 2988 2994 2996 2999 3002 3001 3003 3002 3006 3006 3007 3008 3009 3008 3006 3007 3006 3008 3009 3004 3003 3003 3002 2999 2998
2924 2927 2930 2934 2936 2939 2942 2944 2945 2950 2953 2958 2961 2965 2968 2971 2975 2974 2975 2975 2979 2981 2984 2983 2987 2992 2992 2992 2995 2996 3000 2999 2999 3001 3001 3002 2997 2999 2998 2999 2999 2996 2997 2993 2992 2992 2990
2915 2919 2923 2926 2930 2933 2935 2939 2943 2945 2947 2950 2957 2957 2962 2964 2966 2968 2968 2969 2971 2973 2975 2975 2980 2981 2985 2987 2987 2986 2988 2990 2991 2993 2995 2996 2994 2993 2990 2991 2990 2986 2983 2984 2984 2982 2980
2906 2910 2915 2919 2922 2926 2930 2934 2937 2941 2944 2950 2952 2953 2955 2955 2958 2961 2965 2968 2967 2970 2970 2971 2973 2975 2978 2976 2979 2982 2982 2982 2983 2984 2989 2989 2988 2989 2986 2988 2982 2973 2978 2976 2972 2969 2968
2895 2901 2906 2911 2915 2919 2924 2928 2932 2936 2940 2944 2948 2949 2949 2950 2953 2956 2957 2959 2961 2962 2965 2969 2971 2972 2971 2971 2974 2975 2977 2976 2971 2975 2978 2982 2982 2981 2981 2978 2973 2970 2965 2966 2963 2960 2959
2885 2890 2897 2902 2908 2912 2917 2922 2927 2931 2936 2940 2944 2945 2948 2949 2950 2953 2952 2955 2958 2958 2963 2966 2965 2967 2970 2971 2971 2971 2970 2969 2965 2965 2967 2971 2972 2975 2974 2970 2963 2956 2960 2953 2952 2950 2952
2877 2882 2887 2893 2900 2906 2911 2916 2921 2926 2931 2934 2939 2943 2945 2947 2949 2951 2954 2955 2957 2960 2963 2964 2964 2965 2964 2964 2964 2966 2965 2965 2963 2961 2963 2964 2964 2965 2964 2961 2954 2952 2952 2952 2952 2952 2947
2867 2874 2879 2885 2892 2899 2905 2910 2916 2922 2926 2930 2935 2938 2942 2943 2946 2946 2948 2951 2954 2957 2960 2962 2962 2960 2961 2961 2959 2958 2957 2957 2956 2956 2956 2956 2957 2957 2956 2954 2949 2947 2948 2949 2947 2945 2943
2859 2866 2872 2878 2885 2892 2899 2905 2911 2916 2920 2926 2930 2933 2937 2939 2941 2939 2942 2944 2947 2951 2953 2954 2956 2957 2957 2957 2958 2958 2957 2955 2954 2949 2946 2947 2949 2952 2951 2946 2940 2941 2944 2944 2941 2939 2938